 ,,�O�C���x [��],����1,�O�C���x [��],����2,���ԉ��x [��],����3,���Ԏ��x [��],����4,�Q�����x [��],����5,�Q�����x [��],����6,�Q�X�g���[��(��󒲎�)���x [��],����7,���� [��],����8
2004/11/1,0:00,14.8,0,100,0,21.1,0,72.1,0,20.5,0,72.4,0,20.5,0,18.3,0
2004/11/1,0:15,14.7,0,100,0,21.2,0,72.2,0,20.4,0,72.3,0,20.5,0,18.4,0
2004/11/1,0:30,14.8,0,100,0,21.6,0,70.3,0,20.7,0,71.8,0,20.5,0,16,0
2004/11/1,0:45,14.8,0,100,0,21.2,0,71.5,0,20.5,0,72.4,0,20.5,0,16.1,0
2004/11/1,1:00,14.9,0,100,0,21.1,0,71.8,0,20.5,0,71.5,0,20.5,0,16.2,0
2004/11/1,1:15,14.8,0,100,0,21,0,71.8,0,20.3,0,71.4,0,20.5,0,16.3,0
2004/11/1,1:30,14.8,0,100,0,20.9,0,71.9,0,20.3,0,71.3,0,20.5,0,16.4,0
2004/11/1,1:45,14.8,0,100,0,20.8,0,72,0,20.2,0,71.6,0,20.5,0,16.5,0
2004/11/1,2:00,14.9,0,100,0,20.8,0,72.1,0,20.2,0,71.6,0,20.4,0,16.6,0
2004/11/1,2:15,14.8,0,100,0,20.7,0,72.4,0,20.1,0,71.7,0,20.4,0,16.7,0
2004/11/1,2:30,14.9,0,100,0,20.6,0,72.5,0,20.1,0,71.8,0,20.3,0,16.8,0
2004/11/1,2:45,14.9,0,100,0,20.6,0,72.7,0,20,0,72,0,20.3,0,16.9,0
2004/11/1,3:00,14.9,0,100,0,20.6,0,72.7,0,20,0,72,0,20.3,0,17,0
2004/11/1,3:15,14.9,0,100,0,20.5,0,72.8,0,20,0,72,0,20.2,0,17.1,0
2004/11/1,3:30,14.9,0,100,0,20.5,0,72.9,0,20,0,71.9,0,20.2,0,17.2,0
2004/11/1,3:45,14.9,0,100,0,20.4,0,73,0,19.9,0,72,0,20.2,0,17.3,0
2004/11/1,4:00,14.9,0,100,0,20.3,0,73.2,0,19.9,0,72.1,0,20.1,0,17.4,0
2004/11/1,4:15,14.8,0,100,0,20.3,0,73.2,0,19.9,0,72.1,0,20.1,0,17.5,0
2004/11/1,4:30,14.8,0,100,0,20.3,0,73.3,0,19.9,0,72.1,0,20.1,0,17.6,0
2004/11/1,4:45,14.8,0,100,0,20.2,0,73.4,0,19.8,0,72.2,0,20,0,17.6,0
2004/11/1,5:00,14.8,0,100,0,20.2,0,73.4,0,19.9,0,72.1,0,20,0,17.7,0
2004/11/1,5:15,14.7,0,100,0,20.1,0,73.6,0,19.8,0,72.1,0,20,0,17.8,0
2004/11/1,5:30,14.7,0,100,0,20.1,0,73.6,0,19.8,0,72.4,0,19.9,0,17.9,0
2004/11/1,5:45,14.7,0,100,0,20.1,0,73.7,0,19.8,0,72.3,0,19.9,0,17.9,0
2004/11/1,6:00,14.7,0,100,0,20,0,73.8,0,19.8,0,72.3,0,19.9,0,18,0
2004/11/1,6:15,14.7,0,100,0,20,0,73.9,0,19.7,0,72.4,0,19.9,0,18,0
2004/11/1,6:30,14.8,0,100,0,20,0,73.8,0,19.8,0,72.5,0,19.8,0,18.1,0
2004/11/1,6:45,14.7,0,100,0,20.1,0,74.7,0,19.7,0,72.9,0,19.8,0,16.6,0
2004/11/1,7:00,14.8,0,100,0,20.2,0,76.4,0,19.8,0,73.4,0,19.8,0,15.5,0
2004/11/1,7:15,14.8,0,100,0,20.2,0,77.5,0,19.7,0,73.5,0,19.8,0,15.6,0
2004/11/1,7:30,14.9,0,100,0,20.3,0,77.3,0,19.7,0,73.5,0,19.9,0,15.4,0
2004/11/1,7:45,14.9,0,100,0,20.2,0,76.7,0,19.7,0,74.3,0,19.9,0,15.4,0
2004/11/1,8:00,15,0,100,0,20.2,0,76.6,0,19.7,0,74.4,0,19.9,0,15.5,0
2004/11/1,8:15,15,0,100,0,20.2,0,76.4,0,19.7,0,74.1,0,19.9,0,15.6,0
2004/11/1,8:30,15.1,0,100,0,20.2,0,76.1,0,19.7,0,74.2,0,19.9,0,15.7,0
2004/11/1,8:45,15.2,0,100,0,20.2,0,76.6,0,19.7,0,74.2,0,19.9,0,15.9,0
2004/11/1,9:00,15.3,0,100,0,20.1,0,77,0,19.7,0,74.1,0,19.9,0,16,0
2004/11/1,9:15,15.5,0,100,0,20.1,0,77.8,0,19.7,0,74.8,0,19.8,0,16.1,0
2004/11/1,9:30,15.7,0,100,0,20.1,0,77.2,0,19.7,0,74.4,0,19.8,0,15.8,0
2004/11/1,9:45,15.7,0,100,0,20,0,77.2,0,19.6,0,74.5,0,19.8,0,15.9,0
2004/11/1,10:00,16,0,100,0,20,0,77.8,0,19.6,0,74.5,0,19.8,0,16,0
2004/11/1,10:15,15.8,0,100,0,20,0,77.9,0,19.6,0,74.5,0,19.7,0,16.1,0
2004/11/1,10:30,15.7,0,100,0,20,0,78.1,0,19.6,0,74.6,0,19.7,0,16.2,0
2004/11/1,10:45,16.3,0,100,0,19.9,0,78.1,0,19.6,0,74.6,0,19.7,0,16.3,0
2004/11/1,11:00,16,0,100,0,19.9,0,78.2,0,19.6,0,74.9,0,19.6,0,16.4,0
2004/11/1,11:15,16.2,0,100,0,19.9,0,78.4,0,19.6,0,74.9,0,19.6,0,16.5,0
2004/11/1,11:30,16.1,0,100,0,19.9,0,78.5,0,19.6,0,74.9,0,19.6,0,16.5,0
2004/11/1,11:45,16.1,0,100,0,19.9,0,78.5,0,19.6,0,74.9,0,19.6,0,16.6,0
2004/11/1,12:00,16.1,0,100,0,19.9,0,78.6,0,19.5,0,75,0,19.6,0,16.7,0
2004/11/1,12:15,16,0,100,0,19.8,0,78.7,0,19.5,0,75.2,0,19.6,0,16.8,0
2004/11/1,12:30,16.2,0,100,0,19.8,0,78.8,0,19.5,0,75.3,0,19.5,0,16.9,0
2004/11/1,12:45,16.1,0,100,0,19.8,0,78.9,0,19.5,0,75.2,0,19.5,0,16.9,0
2004/11/1,13:00,16,0,100,0,19.8,0,78.8,0,19.5,0,75.4,0,19.5,0,17,0
2004/11/1,13:15,16.1,0,100,0,19.8,0,79,0,19.5,0,75.4,0,19.5,0,17.1,0
2004/11/1,13:30,16.2,0,100,0,19.8,0,79.1,0,19.5,0,75.5,0,19.5,0,17.2,0
2004/11/1,13:45,16.3,0,100,0,19.8,0,79,0,19.5,0,75.2,0,19.5,0,17.2,0
2004/11/1,14:00,16.5,0,100,0,19.8,0,79,0,19.5,0,75.4,0,19.5,0,17.3,0
2004/11/1,14:15,16.5,0,100,0,19.7,0,79,0,19.5,0,75.7,0,19.5,0,17.4,0
2004/11/1,14:30,16.4,0,100,0,19.7,0,79.3,0,19.5,0,75.7,0,19.4,0,17.5,0
2004/11/1,14:45,16.5,0,100,0,19.7,0,79.3,0,19.5,0,75.8,0,19.4,0,17.5,0
2004/11/1,15:00,16.5,0,100,0,19.7,0,79.3,0,19.5,0,75.7,0,19.4,0,17.6,0
2004/11/1,15:15,16.5,0,100,0,19.7,0,79.7,0,19.5,0,75.7,0,19.4,0,17.6,0
2004/11/1,15:30,16.2,0,100,0,19.7,0,80.1,0,19.5,0,75.9,0,19.4,0,17.7,0
2004/11/1,15:45,16.3,0,100,0,19.8,0,80.2,0,19.5,0,76.2,0,19.4,0,17.8,0
2004/11/1,16:00,16.4,0,100,0,19.7,0,80.2,0,19.5,0,76.1,0,19.4,0,17.8,0
2004/11/1,16:15,16.2,0,100,0,19.7,0,80.4,0,19.5,0,76.1,0,19.4,0,17.9,0
2004/11/1,16:30,16.2,0,100,0,19.8,0,80.2,0,19.5,0,76.2,0,19.4,0,16.2,0
2004/11/1,16:45,16.1,0,100,0,19.7,0,80.2,0,19.5,0,76.1,0,19.4,0,16.2,0
2004/11/1,17:00,16.1,0,100,0,19.8,0,80.1,0,19.5,0,76.1,0,19.4,0,16.2,0
2004/11/1,17:15,16,0,100,0,19.8,0,80,0,19.5,0,76,0,19.4,0,16.3,0
2004/11/1,17:30,15.9,0,100,0,19.8,0,80,0,19.5,0,75.9,0,19.4,0,16.4,0
2004/11/1,17:45,15.9,0,100,0,19.8,0,79.8,0,19.5,0,75.8,0,19.4,0,16.4,0
2004/11/1,18:00,16,0,100,0,19.8,0,79.7,0,19.5,0,76.1,0,19.4,0,16.5,0
2004/11/1,18:15,16,0,100,0,19.8,0,79.6,0,19.5,0,75.7,0,19.4,0,16.5,0
2004/11/1,18:30,15.9,0,100,0,19.8,0,79.5,0,19.5,0,75.9,0,19.4,0,16.6,0
2004/11/1,18:45,16,0,100,0,19.8,0,79.5,0,19.4,0,75.9,0,19.4,0,16.7,0
2004/11/1,19:00,16,0,100,0,19.8,0,79.4,0,19.4,0,75.9,0,19.4,0,16.7,0
2004/11/1,19:15,15.9,0,100,0,19.8,0,79.1,0,19.5,0,75.9,0,19.4,0,16.8,0
2004/11/1,19:30,15.8,0,100,0,19.9,0,79,0,19.4,0,75.7,0,19.4,0,16.9,0
2004/11/1,19:45,16,0,100,0,19.9,0,79.2,0,19.4,0,75.8,0,19.4,0,16.9,0
2004/11/1,20:00,15.9,0,100,0,20,0,79.5,0,19.5,0,75.7,0,19.4,0,17,0
2004/11/1,20:15,15.9,0,100,0,20,0,79.5,0,19.5,0,75.9,0,19.4,0,17,0
2004/11/1,20:30,15.8,0,100,0,20,0,79.7,0,19.5,0,76.2,0,19.4,0,17.1,0
2004/11/1,20:45,15.8,0,100,0,20,0,79.8,0,19.5,0,79.2,0,19.4,0,17.2,0
2004/11/1,21:00,15.8,0,100,0,20.1,0,79.8,0,19.5,0,76,0,19.5,0,17.2,0
2004/11/1,21:15,15.8,0,100,0,20.1,0,79.7,0,19.5,0,76.7,0,19.5,0,17.3,0
2004/11/1,21:30,15.9,0,100,0,20.1,0,79.5,0,19.6,0,78.7,0,19.5,0,16.2,0
2004/11/1,21:45,15.6,0,100,0,20,0,79.4,0,19.6,0,78.5,0,19.5,0,16.3,0
2004/11/1,22:00,15.6,0,100,0,20,0,79.3,0,19.6,0,78.2,0,19.5,0,16.4,0
2004/11/1,22:15,15.7,0,100,0,20,0,79.1,0,19.6,0,78.1,0,19.5,0,16.4,0
2004/11/1,22:30,15.7,0,100,0,20.1,0,78.8,0,19.6,0,78.1,0,19.5,0,16.5,0
2004/11/1,22:45,15.7,0,100,0,20,0,78.8,0,19.6,0,77.9,0,19.5,0,16.6,0
2004/11/1,23:00,15.7,0,100,0,20,0,78.8,0,19.6,0,77.8,0,19.5,0,16.6,0
2004/11/1,23:15,15.6,0,100,0,20,0,78.7,0,19.6,0,77.8,0,19.5,0,16.7,0
2004/11/1,23:30,15.7,0,100,0,20,0,78.6,0,19.6,0,77.8,0,19.5,0,16.8,0
2004/11/1,23:45,15.6,0,100,0,20,0,78.6,0,19.6,0,77.6,0,19.5,0,15.8,0
2004/11/2,0:00,15.6,0,100,0,20,0,78.6,0,19.5,0,76,0,19.5,0,15.9,0
2004/11/2,0:15,15.7,0,100,0,20,0,78.6,0,19.5,0,75.6,0,19.5,0,16,0
2004/11/2,0:30,15.6,0,100,0,20,0,78.6,0,19.5,0,75.6,0,19.5,0,16.1,0
2004/11/2,0:45,15.6,0,100,0,19.9,0,78.4,0,19.5,0,75.9,0,19.5,0,16.2,0
2004/11/2,1:00,15.7,0,100,0,19.9,0,78.6,0,19.5,0,76.2,0,19.5,0,16.2,0
2004/11/2,1:15,15.6,0,100,0,19.9,0,78.4,0,19.5,0,75.9,0,19.5,0,16.3,0
2004/11/2,1:30,15.6,0,100,0,19.9,0,78.5,0,19.5,0,75.4,0,19.5,0,16.4,0
2004/11/2,1:45,15.5,0,100,0,19.9,0,78.6,0,19.5,0,77,0,19.5,0,16.4,0
2004/11/2,2:00,15.5,0,100,0,19.9,0,78.6,0,19.5,0,77,0,19.5,0,16.5,0
2004/11/2,2:15,15.5,0,100,0,19.9,0,78.4,0,19.5,0,77.5,0,19.5,0,16.5,0
2004/11/2,2:30,15.6,0,100,0,19.9,0,78.6,0,19.5,0,76.2,0,19.5,0,16.6,0
2004/11/2,2:45,15.7,0,100,0,19.8,0,78.5,0,19.5,0,75.7,0,19.5,0,16.6,0
2004/11/2,3:00,15.5,0,100,0,19.8,0,78.6,0,19.5,0,77.6,0,19.4,0,16.7,0
2004/11/2,3:15,15.5,0,100,0,19.8,0,78.6,0,19.5,0,76.4,0,19.4,0,16.8,0
2004/11/2,3:30,15.6,0,100,0,19.8,0,78.5,0,19.5,0,77.4,0,19.4,0,16.8,0
2004/11/2,3:45,15.5,0,100,0,19.8,0,78.5,0,19.5,0,76.7,0,19.4,0,16.9,0
2004/11/2,4:00,15.6,0,100,0,19.8,0,78.6,0,19.5,0,75.5,0,19.4,0,16.9,0
2004/11/2,4:15,15.5,0,100,0,19.8,0,78.5,0,19.4,0,75.2,0,19.4,0,17,0
2004/11/2,4:30,15.5,0,100,0,19.8,0,78.5,0,19.4,0,75.2,0,19.4,0,17.1,0
2004/11/2,4:45,15.6,0,100,0,19.8,0,78.4,0,19.5,0,76.8,0,19.4,0,17.1,0
2004/11/2,5:00,15.5,0,100,0,19.8,0,78.5,0,19.4,0,75.4,0,19.4,0,17.2,0
2004/11/2,5:15,15.5,0,100,0,19.8,0,78.5,0,19.4,0,75.1,0,19.4,0,17.2,0
2004/11/2,5:30,15.5,0,100,0,19.8,0,78.5,0,19.4,0,75.9,0,19.4,0,17.3,0
2004/11/2,5:45,15.5,0,100,0,19.8,0,78.4,0,19.4,0,76.7,0,19.4,0,17.3,0
2004/11/2,6:00,15.6,0,100,0,19.8,0,78.5,0,19.4,0,75.3,0,19.4,0,16.4,0
2004/11/2,6:15,15.6,0,100,0,19.9,0,79.4,0,19.4,0,76.2,0,19.4,0,16.4,0
2004/11/2,6:30,15.6,0,100,0,19.9,0,81,0,19.4,0,76.2,0,19.4,0,16.5,0
2004/11/2,6:45,15.6,0,100,0,20,0,82.1,0,19.5,0,79,0,19.4,0,16.5,0
2004/11/2,7:00,15.8,0,100,0,20,0,81.8,0,19.5,0,80.9,0,19.4,0,16.1,0
2004/11/2,7:15,16,0,100,0,20.1,0,80.6,0,19.5,0,78.1,0,19.5,0,16.1,0
2004/11/2,7:30,15.9,0,100,0,20.1,0,80.1,0,19.5,0,77.9,0,19.5,0,16.2,0
2004/11/2,7:45,16,0,100,0,20,0,79.7,0,19.4,0,77.1,0,19.5,0,16.3,0
2004/11/2,8:00,15.8,0,100,0,20,0,79.5,0,19.4,0,76.8,0,19.5,0,16.4,0
2004/11/2,8:15,15.8,0,100,0,20,0,80.3,0,19.5,0,79.9,0,19.5,0,16.4,0
2004/11/2,8:30,15.8,0,100,0,20,0,80.9,0,19.5,0,78.4,0,19.5,0,16.5,0
2004/11/2,8:45,15.7,0,100,0,20,0,80.1,0,19.5,0,77.4,0,19.6,0,16.6,0
2004/11/2,9:00,16,0,100,0,20,0,79.7,0,19.5,0,77.1,0,19.6,0,16.7,0
2004/11/2,9:15,16.9,0,100,0,19.9,0,79.5,0,19.4,0,77.1,0,19.6,0,16.8,0
2004/11/2,9:30,16.4,0,100,0,19.9,0,79.1,0,19.4,0,76.6,0,19.6,0,16.8,0
2004/11/2,9:45,16.1,0,100,0,19.9,0,79.1,0,19.4,0,76.5,0,19.6,0,16.9,0
2004/11/2,10:00,16.4,0,100,0,19.9,0,78.7,0,19.4,0,76.3,0,19.6,0,17,0
2004/11/2,10:15,17.2,0,100,0,19.9,0,78.7,0,19.4,0,75.8,0,19.6,0,17.1,0
2004/11/2,10:30,16.9,0,100,0,19.8,0,78.7,0,19.4,0,76,0,19.6,0,17.1,0
2004/11/2,10:45,17.6,0,97.2,0,19.8,0,78.6,0,19.4,0,75.9,0,19.6,0,17.2,0
2004/11/2,11:00,18,0,95,0,19.8,0,78.4,0,19.4,0,75.6,0,19.6,0,17.3,0
2004/11/2,11:15,17.3,0,98.5,0,19.8,0,78.5,0,19.4,0,75.6,0,19.6,0,17.3,0
2004/11/2,11:30,17.7,0,98.5,0,19.8,0,78.5,0,19.4,0,75.9,0,19.5,0,17.4,0
2004/11/2,11:45,17.3,0,98.3,0,19.8,0,78.4,0,19.4,0,75.4,0,19.5,0,17.4,0
2004/11/2,12:00,16.8,0,96.9,0,19.8,0,78.4,0,19.4,0,75.2,0,19.5,0,17.5,0
2004/11/2,12:15,16.8,0,98.9,0,19.8,0,78.4,0,19.4,0,75.3,0,19.5,0,17.6,0
2004/11/2,12:30,17.3,0,96.3,0,19.7,0,78.3,0,19.4,0,75,0,19.5,0,17.6,0
2004/11/2,12:45,16.6,0,98.8,0,19.7,0,78.3,0,19.4,0,75.4,0,19.5,0,17.7,0
2004/11/2,13:00,17.1,0,98,0,19.7,0,78.3,0,19.4,0,75.4,0,19.5,0,17.7,0
2004/11/2,13:15,16.4,0,100,0,19.7,0,78.2,0,19.4,0,75.6,0,19.5,0,17.8,0
2004/11/2,13:30,16.3,0,99.3,0,19.7,0,78.2,0,19.4,0,75.3,0,19.5,0,17.9,0
2004/11/2,13:45,16.5,0,98.9,0,19.7,0,78.1,0,19.4,0,75,0,19.5,0,17.9,0
2004/11/2,14:00,16.5,0,100,0,19.7,0,78,0,19.4,0,75,0,19.5,0,18,0
2004/11/2,14:15,16.1,0,100,0,19.6,0,77.9,0,19.3,0,74.9,0,19.5,0,18,0
2004/11/2,14:30,16.1,0,99.9,0,19.6,0,77.9,0,19.3,0,74.9,0,19.5,0,18,0
2004/11/2,14:45,15.8,0,98.6,0,19.6,0,77.8,0,19.3,0,75,0,19.4,0,18.1,0
2004/11/2,15:00,15.8,0,98.4,0,19.6,0,77.8,0,19.3,0,74.9,0,19.4,0,18.1,0
2004/11/2,15:15,15.8,0,100,0,19.6,0,77.7,0,19.3,0,74.8,0,19.4,0,18.2,0
2004/11/2,15:30,15.8,0,100,0,19.5,0,77.7,0,19.3,0,74.8,0,19.4,0,18.2,0
2004/11/2,15:45,15.8,0,99.7,0,19.5,0,77.6,0,19.3,0,74.8,0,19.4,0,18.3,0
2004/11/2,16:00,15.5,0,100,0,19.5,0,77.6,0,19.2,0,74.8,0,19.4,0,18.3,0
2004/11/2,16:15,15.5,0,100,0,19.5,0,77.2,0,19.2,0,74.5,0,19.3,0,18.3,0
2004/11/2,16:30,15.2,0,100,0,19.5,0,77.3,0,19.2,0,74.6,0,19.3,0,18.4,0
2004/11/2,16:45,15.1,0,99.8,0,19.5,0,77.2,0,19.2,0,74.4,0,19.3,0,18.4,0
2004/11/2,17:00,15.1,0,100,0,19.5,0,77,0,19.2,0,74.4,0,19.3,0,18.5,0
2004/11/2,17:15,14.7,0,100,0,19.5,0,76.8,0,19.2,0,74.2,0,19.3,0,18.5,0
2004/11/2,17:30,14.7,0,100,0,19.5,0,76.7,0,19.2,0,74.3,0,19.3,0,18.5,0
2004/11/2,17:45,14.7,0,100,0,19.5,0,76.7,0,19.1,0,74.2,0,19.2,0,18.5,0
2004/11/2,18:00,14.6,0,100,0,19.5,0,76.5,0,19.1,0,74.2,0,19.2,0,18.6,0
2004/11/2,18:15,14.5,0,100,0,19.5,0,76.4,0,19.1,0,74.2,0,19.2,0,18.6,0
2004/11/2,18:30,14.6,0,100,0,19.5,0,76.3,0,19.1,0,74.4,0,19.2,0,18.6,0
2004/11/2,18:45,14.4,0,100,0,19.5,0,76.2,0,19.1,0,74.2,0,19.2,0,17.2,0
2004/11/2,19:00,14.4,0,100,0,19.5,0,76,0,19.1,0,74.1,0,19.2,0,16.9,0
2004/11/2,19:15,14.3,0,100,0,19.5,0,76,0,19.1,0,74.2,0,19.2,0,17,0
2004/11/2,19:30,14.3,0,100,0,19.5,0,75.8,0,19,0,74.1,0,19.2,0,17,0
2004/11/2,19:45,14.3,0,100,0,19.5,0,75.7,0,19,0,74,0,19.2,0,17.1,0
2004/11/2,20:00,14.2,0,100,0,19.5,0,75.6,0,19,0,74,0,19.1,0,17.1,0
2004/11/2,20:15,14.1,0,100,0,19.5,0,75.5,0,19,0,73.9,0,19.1,0,17.2,0
2004/11/2,20:30,14.1,0,100,0,19.5,0,75.5,0,19,0,73.9,0,19.1,0,17.2,0
2004/11/2,20:45,13.9,0,100,0,19.5,0,75.4,0,19,0,74,0,19.1,0,17.3,0
2004/11/2,21:00,13.8,0,100,0,19.4,0,75.3,0,19,0,73.9,0,19.1,0,17.3,0
2004/11/2,21:15,13.9,0,100,0,19.5,0,75.3,0,18.9,0,73.9,0,19.1,0,17.4,0
2004/11/2,21:30,13.8,0,100,0,19.5,0,76.4,0,19,0,74.3,0,19.1,0,17.4,0
2004/11/2,21:45,13.8,0,100,0,19.6,0,75.7,0,18.9,0,74.3,0,19.1,0,17.5,0
2004/11/2,22:00,13.9,0,100,0,19.5,0,75.5,0,18.9,0,74.2,0,19.1,0,17.5,0
2004/11/2,22:15,13.9,0,100,0,19.5,0,75.4,0,18.9,0,74.3,0,19,0,17.5,0
2004/11/2,22:30,13.8,0,100,0,19.5,0,75.3,0,18.9,0,74.3,0,19,0,17.6,0
2004/11/2,22:45,13.7,0,100,0,19.5,0,74.9,0,18.9,0,74.1,0,19,0,17.6,0
2004/11/2,23:00,13.6,0,100,0,19.5,0,74.8,0,18.9,0,74.1,0,19,0,17.7,0
2004/11/2,23:15,13.6,0,100,0,19.5,0,74.7,0,18.9,0,74,0,19,0,17.7,0
2004/11/2,23:30,13.6,0,100,0,19.5,0,74.6,0,18.8,0,74,0,19,0,17.7,0
2004/11/2,23:45,13.7,0,100,0,19.5,0,74.5,0,18.8,0,73.9,0,19,0,17.8,0
2004/11/3,0:00,13.7,0,100,0,19.5,0,74.4,0,18.8,0,73.9,0,18.9,0,17.8,0
2004/11/3,0:15,13.7,0,100,0,19.5,0,74.3,0,18.8,0,73.9,0,18.9,0,17.9,0
2004/11/3,0:30,13.8,0,100,0,19.4,0,74.3,0,18.8,0,73.9,0,18.9,0,17.9,0
2004/11/3,0:45,13.6,0,100,0,19.4,0,74.3,0,18.8,0,73.9,0,18.9,0,16,0
2004/11/3,1:00,13.6,0,100,0,19.4,0,74.4,0,18.7,0,74,0,18.9,0,16,0
2004/11/3,1:15,13.6,0,100,0,19.5,0,74.2,0,18.8,0,74,0,18.9,0,16.1,0
2004/11/3,1:30,13.5,0,100,0,21.4,0,69.4,0,19.2,0,74.1,0,18.9,0,16.1,0
2004/11/3,1:45,13.6,0,100,0,21.9,0,67.3,0,19.7,0,73.1,0,18.9,0,16.2,0
2004/11/3,2:00,13.5,0,100,0,20.7,0,70.6,0,19.5,0,73.7,0,19,0,16.2,0
2004/11/3,2:15,13.4,0,100,0,20.3,0,71.7,0,19.4,0,73.7,0,19.1,0,15.9,0
2004/11/3,2:30,13.6,0,100,0,20.2,0,71.9,0,19.3,0,73.6,0,19.1,0,16,0
2004/11/3,2:45,13.4,0,100,0,20.1,0,71.9,0,19.2,0,73.6,0,19.2,0,16,0
2004/11/3,3:00,13.4,0,100,0,20,0,72.1,0,19.2,0,73.7,0,19.2,0,16.1,0
2004/11/3,3:15,13.3,0,100,0,20,0,72,0,19.2,0,73.5,0,19.2,0,16.1,0
2004/11/3,3:30,13.3,0,100,0,19.9,0,72.3,0,19.1,0,73.1,0,19.2,0,16.2,0
2004/11/3,3:45,13.3,0,100,0,19.8,0,72.3,0,19.1,0,73.6,0,19.2,0,16.2,0
2004/11/3,4:00,13.2,0,100,0,19.9,0,72.2,0,19.1,0,73.7,0,19.1,0,16.3,0
2004/11/3,4:15,13.2,0,100,0,19.7,0,72.6,0,19.1,0,72.9,0,19.1,0,16.4,0
2004/11/3,4:30,13.3,0,100,0,19.7,0,72.6,0,19,0,73.5,0,19.1,0,16.4,0
2004/11/3,4:45,13.3,0,100,0,19.7,0,72.6,0,19,0,73.5,0,19.1,0,16.5,0
2004/11/3,5:00,13.2,0,100,0,19.7,0,72.8,0,19,0,73.6,0,19.1,0,16.5,0
2004/11/3,5:15,13.1,0,100,0,19.6,0,73,0,19,0,73.3,0,19.1,0,16.6,0
2004/11/3,5:30,13,0,100,0,19.6,0,73,0,19,0,73.1,0,19.1,0,16.6,0
2004/11/3,5:45,13.2,0,100,0,19.6,0,73,0,19,0,73.3,0,19.1,0,16.7,0
2004/11/3,6:00,13.2,0,100,0,19.6,0,73,0,19,0,73,0,19,0,16.7,0
2004/11/3,6:15,13.2,0,100,0,19.6,0,73,0,19,0,72.9,0,19,0,16.8,0
2004/11/3,6:30,13.3,0,100,0,19.6,0,73,0,18.9,0,72.9,0,19,0,16.8,0
2004/11/3,6:45,13,0,100,0,19.5,0,73.1,0,18.9,0,72.9,0,19,0,16.9,0
2004/11/3,7:00,13.1,0,100,0,19.5,0,73.2,0,18.9,0,73.3,0,19,0,16.9,0
2004/11/3,7:15,13.2,0,100,0,19.5,0,73.2,0,18.9,0,72.6,0,19,0,17,0
2004/11/3,7:30,13.3,0,100,0,19.4,0,73.3,0,18.9,0,73,0,19,0,17,0
2004/11/3,7:45,13.3,0,100,0,19.4,0,73.3,0,18.9,0,73.4,0,19,0,17.1,0
2004/11/3,8:00,13.3,0,100,0,19.4,0,73.4,0,18.8,0,73,0,19,0,17.1,0
2004/11/3,8:15,13.3,0,100,0,19.4,0,73.4,0,18.8,0,73,0,18.9,0,17.2,0
2004/11/3,8:30,13.1,0,100,0,19.4,0,73.8,0,18.8,0,73.9,0,18.9,0,17.2,0
2004/11/3,8:45,13.2,0,100,0,19.6,0,77.2,0,19,0,78.9,0,18.9,0,17.1,0
2004/11/3,9:00,13,0,100,0,19.6,0,78.9,0,19,0,79.6,0,19,0,16.4,0
2004/11/3,9:15,13,0,100,0,19.5,0,76.9,0,18.9,0,78.2,0,19,0,15.7,0
2004/11/3,9:30,13.2,0,100,0,19.5,0,76.4,0,18.9,0,76.2,0,19,0,15.8,0
2004/11/3,9:45,13.2,0,100,0,19.5,0,75.9,0,18.9,0,76,0,19,0,15.8,0
2004/11/3,10:00,13.3,0,100,0,19.6,0,75.5,0,18.8,0,74.6,0,19,0,15.6,0
2004/11/3,10:15,13.8,0,100,0,19.5,0,75.7,0,18.9,0,76,0,19,0,15.6,0
2004/11/3,10:30,13.7,0,100,0,19.6,0,75.8,0,18.9,0,76.1,0,19,0,15.6,0
2004/11/3,10:45,13.7,0,100,0,19.6,0,75.9,0,18.9,0,75.9,0,19.1,0,15.7,0
2004/11/3,11:00,13.7,0,100,0,19.5,0,75.4,0,18.9,0,75,0,19.1,0,15.8,0
2004/11/3,11:15,13.7,0,100,0,19.5,0,75.7,0,18.8,0,75.5,0,19.1,0,15.7,0
2004/11/3,11:30,13.7,0,100,0,19.5,0,75.4,0,18.9,0,75.6,0,19.1,0,15.7,0
2004/11/3,11:45,13.9,0,100,0,19.5,0,75.4,0,18.9,0,74.6,0,19.1,0,15.8,0
2004/11/3,12:00,14.3,0,100,0,19.5,0,75.3,0,18.8,0,74.3,0,19.1,0,15.8,0
2004/11/3,12:15,14.3,0,100,0,19.5,0,75,0,18.8,0,74.7,0,19.1,0,15.9,0
2004/11/3,12:30,14.5,0,100,0,19.4,0,75,0,18.8,0,74.1,0,19.1,0,16,0
2004/11/3,12:45,14.6,0,100,0,19.4,0,75,0,18.8,0,74,0,19.1,0,16,0
2004/11/3,13:00,14.5,0,100,0,19.4,0,74.8,0,18.7,0,74,0,19.1,0,16.1,0
2004/11/3,13:15,14.7,0,100,0,19.4,0,74.8,0,18.8,0,74,0,19.1,0,16.1,0
2004/11/3,13:30,14.6,0,100,0,19.4,0,74.7,0,18.7,0,73.9,0,19,0,16.2,0
2004/11/3,13:45,14.5,0,100,0,19.4,0,74.8,0,18.7,0,74,0,19,0,16.2,0
2004/11/3,14:00,14.5,0,100,0,19.3,0,74.7,0,18.7,0,74.2,0,19,0,16.3,0
2004/11/3,14:15,14.3,0,100,0,19.4,0,74.8,0,18.7,0,73.9,0,19,0,16.3,0
2004/11/3,14:30,14.4,0,100,0,19.3,0,74.8,0,18.7,0,73.9,0,19,0,16.4,0
2004/11/3,14:45,14.2,0,100,0,19.3,0,74.6,0,18.7,0,74.2,0,19,0,16.5,0
2004/11/3,15:00,14,0,100,0,19.3,0,74.6,0,18.7,0,73.7,0,19,0,15.7,0
2004/11/3,15:15,14.1,0,100,0,19.3,0,74.6,0,18.7,0,74,0,18.9,0,15.8,0
2004/11/3,15:30,14,0,100,0,19.3,0,74.6,0,18.7,0,74,0,18.9,0,15.8,0
2004/11/3,15:45,13.8,0,100,0,19.3,0,74.5,0,18.6,0,73.9,0,18.9,0,15.8,0
2004/11/3,16:00,13.7,0,100,0,19.3,0,74.4,0,18.6,0,74,0,18.9,0,15.9,0
2004/11/3,16:15,13.8,0,100,0,19.3,0,74.3,0,18.6,0,74,0,18.9,0,15.7,0
2004/11/3,16:30,13.8,0,100,0,19.3,0,74.4,0,18.6,0,73.8,0,18.9,0,15.6,0
2004/11/3,16:45,13.7,0,100,0,19.3,0,74.5,0,18.6,0,74,0,18.8,0,15.6,0
2004/11/3,17:00,13.7,0,100,0,19.3,0,74.3,0,18.6,0,73.6,0,18.8,0,15.7,0
2004/11/3,17:15,13.6,0,100,0,19.2,0,74.3,0,18.6,0,74.1,0,18.8,0,15.7,0
2004/11/3,17:30,13.7,0,100,0,19.2,0,74.3,0,18.6,0,73.9,0,18.8,0,15.7,0
2004/11/3,17:45,13.7,0,100,0,19.2,0,74.2,0,18.6,0,73.6,0,18.8,0,15.8,0
2004/11/3,18:00,13.6,0,100,0,19.3,0,73.9,0,18.8,0,74.1,0,18.8,0,15.9,0
2004/11/3,18:15,13.5,0,100,0,19.3,0,73.9,0,18.7,0,73.9,0,18.8,0,15.9,0
2004/11/3,18:30,13.5,0,100,0,19.3,0,73.9,0,18.7,0,74.5,0,18.8,0,16,0
2004/11/3,18:45,13.4,0,100,0,19.4,0,76,0,18.7,0,77.8,0,18.8,0,16,0
2004/11/3,19:00,13.5,0,100,0,19.4,0,78.6,0,18.9,0,80.4,0,18.8,0,16.1,0
2004/11/3,19:15,13.6,0,100,0,19.4,0,77.8,0,18.9,0,78.9,0,18.8,0,16.1,0
2004/11/3,19:30,13.4,0,100,0,19.5,0,77.1,0,18.8,0,77.8,0,18.9,0,16.2,0
2004/11/3,19:45,13.2,0,100,0,19.6,0,75.7,0,18.9,0,76.7,0,18.9,0,16.2,0
2004/11/3,20:00,13.1,0,100,0,21.9,0,68.4,0,19.4,0,75,0,18.9,0,16.3,0
2004/11/3,20:15,13,0,100,0,20.3,0,72.4,0,19.2,0,75.4,0,19,0,16.4,0
2004/11/3,20:30,12.8,0,100,0,20,0,73,0,19.1,0,75.5,0,19.1,0,16.4,0
2004/11/3,20:45,12.6,0,100,0,20.2,0,72.2,0,19.2,0,74.5,0,19.1,0,16.5,0
2004/11/3,21:00,12.5,0,100,0,22.6,0,65.1,0,19.7,0,72.9,0,19.1,0,16.5,0
2004/11/3,21:15,12.4,0,100,0,21,0,69.8,0,19.6,0,73.5,0,19.2,0,16.6,0
2004/11/3,21:30,12.4,0,100,0,20.5,0,70.9,0,19.3,0,74,0,19.3,0,16.6,0
2004/11/3,21:45,12.4,0,100,0,22,0,65.9,0,19.7,0,72.8,0,19.3,0,16.6,0
2004/11/3,22:00,12.4,0,100,0,20.6,0,70.4,0,19.4,0,73.6,0,19.3,0,16.7,0
2004/11/3,22:15,12.3,0,100,0,21.4,0,68.7,0,19.3,0,73.6,0,19.3,0,16.8,0
2004/11/3,22:30,12.2,0,100,0,20.7,0,69.7,0,19.4,0,73.2,0,19.4,0,16.8,0
2004/11/3,22:45,12.2,0,100,0,20.9,0,69.6,0,19.3,0,73.4,0,19.4,0,16,0
2004/11/3,23:00,12.2,0,100,0,23.1,0,62.8,0,19.9,0,71.4,0,19.4,0,16.1,0
2004/11/3,23:15,12.1,0,100,0,23.4,0,62,0,20.3,0,71,0,19.5,0,16.1,0
2004/11/3,23:30,12.2,0,100,0,21.4,0,68.2,0,19.8,0,72.9,0,19.6,0,16.2,0
2004/11/3,23:45,12.2,0,100,0,21.2,0,68.7,0,19.7,0,73.2,0,19.6,0,16.2,0
2004/11/4,0:00,12.2,0,100,0,20.9,0,69.1,0,19.5,0,73.2,0,19.6,0,16.3,0
2004/11/4,0:15,12.2,0,100,0,20.8,0,69.4,0,19.4,0,73.1,0,19.6,0,15.8,0
2004/11/4,0:30,12.2,0,100,0,20.8,0,69.9,0,19.5,0,75.8,0,19.6,0,15.6,0
2004/11/4,0:45,12.2,0,100,0,20.7,0,70.6,0,19.4,0,74.9,0,19.6,0,15.6,0
2004/11/4,1:00,12.1,0,100,0,20.5,0,72.1,0,19.4,0,74.8,0,19.6,0,15.7,0
2004/11/4,1:15,12.2,0,100,0,20.4,0,72.8,0,19.3,0,74.9,0,19.5,0,15.7,0
2004/11/4,1:30,12.1,0,100,0,20.2,0,73.2,0,19.3,0,75,0,19.5,0,15.8,0
2004/11/4,1:45,12.2,0,100,0,20.1,0,72.9,0,19.2,0,74.3,0,19.4,0,15.9,0
2004/11/4,2:00,12.3,0,100,0,20,0,73,0,19.1,0,74.9,0,19.4,0,15.9,0
2004/11/4,2:15,12.1,0,100,0,19.9,0,73.4,0,19,0,74.6,0,19.3,0,16,0
2004/11/4,2:30,12,0,100,0,19.9,0,73.5,0,19,0,74.2,0,19.2,0,16,0
2004/11/4,2:45,12,0,100,0,19.8,0,73.5,0,18.9,0,73.4,0,19.2,0,16.1,0
2004/11/4,3:00,11.9,0,100,0,19.7,0,73.7,0,18.9,0,73.4,0,19.1,0,16.1,0
2004/11/4,3:15,11.8,0,100,0,19.7,0,73.8,0,18.8,0,73.4,0,19.1,0,16.2,0
2004/11/4,3:30,11.6,0,100,0,19.6,0,73.7,0,18.8,0,73.7,0,19.1,0,16.3,0
2004/11/4,3:45,11.5,0,100,0,19.5,0,74,0,18.8,0,73.5,0,19,0,16.3,0
2004/11/4,4:00,11.4,0,100,0,19.5,0,74,0,18.7,0,73.8,0,19,0,16.4,0
2004/11/4,4:15,11.1,0,100,0,19.4,0,74,0,18.7,0,73.7,0,18.9,0,16.5,0
2004/11/4,4:30,11,0,100,0,19.4,0,73.9,0,18.6,0,74,0,18.9,0,16.5,0
2004/11/4,4:45,11,0,100,0,19.3,0,74,0,18.6,0,73.9,0,18.8,0,16.6,0
2004/11/4,5:00,11.1,0,100,0,19.2,0,74.2,0,18.5,0,74.1,0,18.8,0,16.6,0
2004/11/4,5:15,11.3,0,100,0,19.2,0,74.4,0,18.5,0,74,0,18.7,0,16.7,0
2004/11/4,5:30,11.4,0,100,0,19.1,0,74.3,0,18.5,0,74,0,18.7,0,16.7,0
2004/11/4,5:45,11.5,0,100,0,19.1,0,74.5,0,18.4,0,74.1,0,18.6,0,16.8,0
2004/11/4,6:00,11.4,0,100,0,19,0,74.3,0,18.4,0,74,0,18.6,0,16.8,0
2004/11/4,6:15,11.2,0,100,0,19,0,74.3,0,18.3,0,74.1,0,18.5,0,16.9,0
2004/11/4,6:30,11.4,0,100,0,19,0,73.9,0,18.4,0,74,0,18.5,0,16.9,0
2004/11/4,6:45,11.7,0,100,0,19,0,74.4,0,18.3,0,74,0,18.5,0,16,0
2004/11/4,7:00,11.4,0,100,0,19.1,0,76.4,0,18.5,0,76.8,0,18.5,0,16,0
2004/11/4,7:15,11.6,0,100,0,19.1,0,76.2,0,18.6,0,76.2,0,18.5,0,16,0
2004/11/4,7:30,11.9,0,100,0,19.2,0,75.8,0,18.7,0,75.5,0,18.5,0,16.1,0
2004/11/4,7:45,12.4,0,100,0,19.2,0,75.2,0,18.6,0,75.4,0,18.5,0,16.1,0
2004/11/4,8:00,13,0,100,0,19.1,0,74.8,0,18.6,0,74,0,18.5,0,15.7,0
2004/11/4,8:15,13.2,0,100,0,19.1,0,75.2,0,18.6,0,75.2,0,18.5,0,15.6,0
2004/11/4,8:30,13.4,0,100,0,19.2,0,77.6,0,18.7,0,76.9,0,18.6,0,15.6,0
2004/11/4,8:45,13.7,0,100,0,19.2,0,76,0,18.7,0,75.9,0,18.6,0,15.7,0
2004/11/4,9:00,13.7,0,100,0,19.2,0,75.1,0,18.7,0,75.2,0,18.6,0,15.7,0
2004/11/4,9:15,14.1,0,100,0,19.1,0,74.7,0,18.7,0,74.8,0,18.6,0,15.8,0
2004/11/4,9:30,14,0,100,0,19.1,0,74.3,0,18.7,0,74.3,0,18.6,0,15.9,0
2004/11/4,9:45,14.4,0,100,0,19.1,0,74.2,0,18.7,0,74.1,0,18.6,0,15.9,0
2004/11/4,10:00,14.7,0,100,0,19.1,0,74.1,0,18.9,0,73.5,0,18.6,0,16,0
2004/11/4,10:15,15,0,100,0,19.1,0,74.3,0,19.1,0,73.6,0,18.7,0,16.1,0
2004/11/4,10:30,15.6,0,100,0,19.2,0,74,0,19.4,0,73.1,0,18.7,0,16.1,0
2004/11/4,10:45,15.8,0,89.8,0,19.2,0,73.6,0,19.8,0,72.1,0,18.8,0,16.2,0
2004/11/4,11:00,17.2,0,77.8,0,19.2,0,73.4,0,20.1,0,70.7,0,18.8,0,16.3,0
2004/11/4,11:15,17,0,72.7,0,19.2,0,73.6,0,20.5,0,69.3,0,18.9,0,16.3,0
2004/11/4,11:30,17.1,0,76.9,0,19.3,0,73.2,0,20.7,0,67.7,0,19,0,16.4,0
2004/11/4,11:45,16.4,0,90.5,0,19.3,0,73.3,0,20.5,0,67.5,0,19.1,0,16.5,0
2004/11/4,12:00,16.7,0,81.9,0,19.3,0,73.4,0,21,0,67.5,0,19.1,0,16.5,0
2004/11/4,12:15,16.3,0,82.4,0,19.3,0,73.6,0,21.3,0,65.6,0,19.2,0,16.6,0
2004/11/4,12:30,16.1,0,88.7,0,19.4,0,73.3,0,21.1,0,65.7,0,19.3,0,16.7,0